Weather in Yaroslavskoye

Russia / Kurgan Oblast     55°02′30″N   65°18′04″E
temp.,
°C
wind,
m/s
gust,
m/s
humid.,
%
clouds,
%
prec.,
mm/h
press.,
hPa
HPBL,
m
19 june, sat
sat1923:00+9nw48525 0.0 1016136
02:00+8nw39637 0.0 1017145
05:00+8nw311635 0.0 1017237
08:00+14nnw58479 0.0 1017608
11:00+18nw693278 0.0 10172742
14:00+18wnw9841100 0.0 10162477
17:00+15wnw376083 0.0 1015854
20:00+14wnw5876100 0.4 1014457
20 june, sun
sun2023:00+13wsw3886100 0.4 1013275
02:00+13wsw5993100 0.5 1010355
05:00+13sw51097100 1.3 1008379
08:00+16w51193100 1.3 1006691
11:00+22nw10145395 1.5 10042074
14:00+21nw11143597 0.0 10062353
17:00+19nw1115330 0.0 10082451
20:00+15nw915395 0.0 10091038
21 june, mon
mon2123:00+14nnw11194860 0.0 10111686
02:00+13nnw101745100 0.0 10111812
05:00+12nnw101758100 0.0 10121480
08:00+11nnw81462100 0.0 10151013
11:00+12nnw91362100 0.0 10161106
14:00+13n7126552 0.0 10181102
17:00+16n685870 0.0 10191551
20:00+15n486383 0.0 1019478
22 june, tue
tue2223:00+11nw347596 0.0 102067
02:00+10nw3478100 0.0 102058
05:00+10nw238199 0.0 102059
08:00+12nw1372100 0.0 1020149
11:00+13wnw1170100 0.0 1019103
14:00+15wsw1154100 0.0 1018641
17:00+16wsw115937 0.1 1017807
20:00+15ne1168100 0.0 101713
23 june, wed
wed2323:00+11ne228094 0.0 101717
02:00+11wnw1185100 0.0 101810
05:00+11nw1183100 0.0 101712
08:00+15nnw2270100 0.0 1016426
11:00+12nw3493100 1.2 1016187
14:00+14nnw368160 1.4 1017410
17:00+19n685034 2.4 10172012
20:00+16nne610592 0.0 1019493